This is the latest recevied weather packets stored in our database for station/object SP1BMW-13. If no packets are shown the sender has not sent any weather packets the latest 10 day(s).
| Time | Temp. | Humidity | Pressure | Rain* | Wind** | Luminosity | Snow |
|---|---|---|---|---|---|---|---|
| 1787864596 | 19.44° C | 53% | 1016.8 hPa | 0 mm | 0.45 m/s, 94° | 0 W/m² | - |
| 1787864536 | 19.44° C | 53% | 1016.8 hPa | 0 mm | 0.45 m/s, 172° | 0 W/m² | - |
| 1787864476 | 19.44° C | 53% | 1016.8 hPa | 0 mm | 0.45 m/s, 83° | 0 W/m² | - |
| 1787864416 | 19.44° C | 53% | 1016.9 hPa | 0 mm | 0.89 m/s, 119° | 0 W/m² | - |
| 1787864356 | 19.44° C | 53% | 1016.8 hPa | 0 mm | 0 m/s | 0 W/m² | - |
| 1787864296 | 19.44° C | 52% | 1016.9 hPa | 0 mm | 0.89 m/s, 279° | 0 W/m² | - |
| 1787864236 | 19.44° C | 53% | 1016.9 hPa | 0 mm | 0 m/s | 0 W/m² | - |
| 1787864176 | 19.44° C | 53% | 1016.7 hPa | 0 mm | 0.45 m/s, 55° | 0 W/m² | - |
| 1787864116 | 19.44° C | 53% | 1016.9 hPa | 0 mm | 0 m/s | 0 W/m² | - |
| 1787864056 | 19.44° C | 53% | 1016.8 hPa | 0 mm | 0.89 m/s, 118° | 0 W/m² | - |
| 1787863996 | 19.44° C | 53% | 1016.8 hPa | 0 mm | 0.89 m/s, 75° | 0 W/m² | - |
| 1787863936 | 19.44° C | 53% | 1016.8 hPa | 0 mm | 0 m/s | 0 W/m² | - |
| 1787863875 | 19.44° C | 53% | 1016.7 hPa | 0 mm | 1.34 m/s, 42° | 0 W/m² | - |
| 1787863816 | 19.44° C | 53% | 1016.8 hPa | 0 mm | 0.89 m/s, 32° | 0 W/m² | - |
| 1787863756 | 19.44° C | 53% | 1016.6 hPa | 0 mm | 1.34 m/s, 47° | 0 W/m² | - |
| 1787863696 | 19.44° C | 53% | 1016.9 hPa | 0 mm | 0 m/s | 0 W/m² | - |
| 1787863635 | 19.44° C | 53% | 1016.7 hPa | 0 mm | 0.89 m/s, 36° | 0 W/m² | - |
| 1787863576 | 19.44° C | 53% | 1016.7 hPa | 0 mm | 0.89 m/s, 66° | 0 W/m² | - |
| 1787863516 | 19.44° C | 53% | 1016.8 hPa | 0 mm | 0.45 m/s, 76° | 0 W/m² | - |
| 1787863455 | 19.44° C | 53% | 1016.7 hPa | 0 mm | 0.89 m/s, 107° | 0 W/m² | - |
| 1787863396 | 19.44° C | 53% | 1016.9 hPa | 0 mm | 0.45 m/s, 87° | 0 W/m² | - |
| 1787863356 | 19.44° C | 53% | 1016.9 hPa | 0 mm | 0.45 m/s, 43° | 0 W/m² | - |
| 1787863276 | 19.44° C | 53% | 1016.9 hPa | 0 mm | 0 m/s | 0 W/m² | - |
| 1787863215 | 19.44° C | 52% | 1017 hPa | 0 mm | 0.89 m/s, 43° | 0 W/m² | - |
| 1787863155 | 19.44° C | 53% | 1017 hPa | 0 mm | 0.89 m/s, 53° | 0 W/m² | - |
* Rain latest hour (hover to see other rain measurements)
** Current wind speed in m/s (hover to see current wind gust speed)